Date String (YYYY-MM-DD hh:mm:ss) UTC,Instrument flags,Ambient pressure (hPa),Sample flow (lpm),Bypass flow (lpm),Sample temperature (°C),Ambient temperature (°C),ASC tube jacket temperature (°C),LED temperature (°C),Box temperature (°C),Sample RH (%),Span deviation,Mass concentration (μg/m³),Mass concentration (μg/m³),Mass concentration (μg/m³)
DateTimeUTC,F1_M11,P_M11,Q1_M11,Q2_M11,T1_M11,T2_M11,T3_M11,T4_M11,T5_M11,U1_M11,ZSPAN_M11,X2_M11,X0_M11,X1_M11
2022-12-19 16:00:00,,0823.7,5.03,0.00,22.0,21.3,00.0,30.7,23.8,05.5,0000.0,0002.25,0008.59,0001.36
2022-12-19 16:01:00,,0823.7,5.00,0.00,21.9,20.7,00.0,30.7,23.6,05.2,0000.0,0002.08,0008.56,0001.21
2022-12-19 16:02:00,,0823.7,4.97,0.00,21.9,20.3,00.0,30.7,23.5,05.2,0000.0,0001.92,0007.89,0001.10
2022-12-19 16:03:00,,0823.8,5.01,0.00,21.8,20.1,00.0,30.7,23.4,05.4,0000.0,0001.66,0006.11,0001.04
2022-12-19 16:04:00,,0823.7,5.03,0.00,21.7,19.9,00.0,30.7,23.3,05.7,0000.0,0001.74,0006.11,0001.10
2022-12-19 16:05:00,,0823.7,5.00,0.00,21.7,19.8,00.0,30.7,23.3,05.9,0000.0,0001.98,0006.96,0001.23
2022-12-19 16:06:00,,0823.7,4.95,0.00,21.7,19.7,00.0,30.7,23.2,05.8,0000.0,0002.17,0008.10,0001.35
2022-12-19 16:07:00,,0823.7,5.02,0.00,21.6,19.5,00.0,30.6,23.1,05.7,0000.0,0002.35,0008.84,0001.47
2022-12-19 16:08:00,,0823.7,5.03,0.00,21.5,19.4,00.0,30.6,23.0,05.4,0000.0,0002.39,0008.88,0001.51
2022-12-19 16:09:00,,0823.7,4.98,0.00,21.5,19.3,00.0,30.6,22.9,05.3,0000.0,0002.38,0008.88,0001.51
2022-12-19 16:10:00,,0823.7,4.96,0.00,21.4,19.3,00.0,30.5,22.9,05.5,0000.0,0002.27,0008.77,0001.40
2022-12-19 16:11:00,,0823.7,5.02,0.00,21.4,19.8,00.0,30.5,23.0,05.4,0000.0,0002.11,0007.71,0001.31
2022-12-19 16:12:00,,0823.7,5.03,0.00,21.5,21.2,00.0,30.4,23.4,05.4,0000.0,0002.04,0006.90,0001.32
2022-12-19 16:13:00,,0823.7,4.98,0.00,21.7,22.1,00.0,30.4,23.6,05.5,0000.0,0002.09,0006.90,0001.38
2022-12-19 16:14:00,,0823.7,4.97,0.00,21.7,21.7,00.0,30.5,23.6,05.6,0000.0,0002.17,0007.12,0001.43
2022-12-19 16:15:00,,0823.7,5.14,0.00,21.7,21.3,00.0,30.5,23.5,05.5,0000.0,0002.09,0007.44,0001.40
2022-12-19 16:16:00,,0823.7,5.05,0.00,21.7,21.0,00.0,30.6,23.4,05.6,0000.0,0002.02,0007.15,0001.37
2022-12-19 16:17:00,,0823.7,4.99,0.00,21.6,20.5,00.0,30.6,23.3,05.6,0000.0,0001.84,0006.67,0001.29
2022-12-19 16:18:00,,0823.7,5.02,0.00,21.6,20.3,00.0,30.6,23.3,05.8,0000.0,0001.74,0007.40,0001.26
2022-12-19 16:19:00,,0823.7,5.00,0.00,21.6,20.2,00.0,30.6,23.2,05.7,0000.0,0001.67,0007.43,0001.24
2022-12-19 16:20:00,,0823.7,4.97,0.00,21.6,20.1,00.0,30.5,23.2,05.7,0000.0,0001.71,0007.49,0001.27
2022-12-19 16:21:00,,0823.8,5.03,0.00,21.6,20.0,00.0,30.5,23.2,06.0,0000.0,0001.80,0007.53,0001.35
2022-12-19 16:22:00,,0823.8,5.01,0.00,21.6,20.0,00.0,30.5,23.2,05.9,0000.0,0001.88,0007.58,0001.44
2022-12-19 16:23:00,,0823.9,4.96,0.00,21.6,20.1,00.0,30.5,23.3,05.9,0000.0,0001.94,0007.61,0001.50
2022-12-19 16:24:00,,0823.9,5.05,0.00,21.6,20.1,00.0,30.5,23.3,06.1,0000.0,0002.04,0007.74,0001.58
2022-12-19 16:25:00,,0823.9,5.02,0.00,21.5,20.1,00.0,30.5,23.3,06.0,0000.0,0002.18,0007.91,0001.68
2022-12-19 16:26:00,,0824.0,4.95,0.00,21.5,20.1,00.0,30.5,23.2,05.9,0000.0,0002.23,0007.88,0001.74
2022-12-19 16:27:00,,0824.0,5.02,0.00,21.5,20.1,00.0,30.5,23.2,05.8,0000.0,0002.24,0007.38,0001.77
2022-12-19 16:28:00,,0823.9,5.03,0.00,21.5,20.1,00.0,30.5,23.2,05.8,0000.0,0002.27,0007.31,0001.79
2022-12-19 16:29:00,,0824.0,4.95,0.00,21.5,20.1,00.0,30.5,23.2,05.8,0000.0,0002.27,0004.91,0001.77
2022-12-19 16:30:00,,0824.0,5.03,0.00,21.5,20.0,00.0,30.4,23.2,06.0,0000.0,0002.24,0004.02,0001.76
2022-12-19 16:31:00,,0824.0,5.02,0.00,21.5,20.0,00.0,30.4,23.2,06.2,0000.0,0002.37,0004.18,0001.87
2022-12-19 16:32:00,,0824.0,4.98,0.00,21.5,20.1,00.0,30.4,23.2,06.3,0000.0,0002.62,0004.72,0002.07
2022-12-19 16:33:00,,0823.9,5.01,0.00,21.6,21.1,00.0,30.4,23.4,06.0,0000.0,0002.74,0004.82,0002.16
2022-12-19 16:34:00,,0824.0,4.98,0.00,21.7,22.1,00.0,30.4,23.7,05.8,0000.0,0002.81,0004.95,0002.18
2022-12-19 16:35:00,,0824.0,5.03,0.00,21.8,21.9,00.0,30.5,23.8,05.9,0000.0,0002.88,0005.06,0002.22
2022-12-19 16:36:00,,0824.1,4.97,0.00,21.8,21.5,00.0,30.5,23.7,06.2,0000.0,0003.03,0005.31,0002.33
2022-12-19 16:37:00,,0824.1,5.04,0.00,21.8,21.1,00.0,30.5,23.6,06.1,0000.0,0003.17,0006.19,0002.46
2022-12-19 16:38:00,,0824.1,4.95,0.00,21.8,20.9,00.0,30.5,23.6,06.1,0000.0,0003.25,0007.46,0002.60
2022-12-19 16:39:00,,0824.1,5.02,0.00,21.8,20.7,00.0,30.6,23.5,06.0,0000.0,0003.36,0007.62,0002.75
2022-12-19 16:40:00,,0824.0,5.02,0.00,21.7,20.5,00.0,30.6,23.5,05.7,0000.0,0003.37,0007.56,0002.82
2022-12-19 16:41:00,,0824.0,4.96,0.00,21.7,20.4,00.0,30.6,23.4,05.8,0000.0,0003.42,0007.55,0002.85
2022-12-19 16:42:00,,0824.0,5.00,0.00,21.7,20.3,00.0,30.6,23.4,05.8,0000.0,0003.42,0007.68,0002.79
2022-12-19 16:43:00,,0824.0,5.03,0.00,21.7,20.2,00.0,30.6,23.4,05.9,0000.0,0003.33,0007.47,0002.65
2022-12-19 16:44:00,,0824.1,4.99,0.00,21.7,20.1,00.0,30.6,23.4,05.9,0000.0,0003.28,0007.35,0002.59
2022-12-19 16:45:00,,0824.1,4.96,0.00,21.6,20.1,00.0,30.6,23.3,06.1,0000.0,0003.33,0007.56,0002.66
2022-12-19 16:46:00,,0824.2,5.04,0.00,21.6,20.3,00.0,30.5,23.4,06.3,0000.0,0003.39,0008.56,0002.74
2022-12-19 16:47:00,,0824.3,4.98,0.00,21.7,21.5,00.0,30.5,23.7,06.4,0000.0,0003.36,0009.08,0002.71
2022-12-19 16:48:00,,0824.3,5.03,0.00,21.9,22.6,00.0,30.5,24.0,06.4,0000.0,0003.34,0008.78,0002.70
2022-12-19 16:49:00,,0824.3,4.97,0.00,22.0,22.4,00.0,30.6,24.0,06.3,0000.0,0003.35,0008.51,0002.68
2022-12-19 16:50:00,,0824.2,5.05,0.00,22.0,22.0,00.0,30.7,24.0,06.2,0000.0,0003.35,0008.90,0002.65
2022-12-19 16:51:00,,0824.3,4.96,0.00,22.0,21.7,00.0,30.7,23.9,06.1,0000.0,0003.38,0009.55,0002.67
2022-12-19 16:52:00,,0824.2,5.03,0.00,22.0,21.4,00.0,30.7,23.9,05.9,0000.0,0003.38,0009.66,0002.67
2022-12-19 16:53:00,,0824.2,4.95,0.00,22.1,21.3,00.0,30.8,23.9,05.7,0000.0,0003.34,0009.46,0002.66
2022-12-19 16:54:00,,0824.2,5.02,0.00,22.1,21.1,00.0,30.8,23.9,05.8,0000.0,0003.35,0010.64,0002.66
2022-12-19 16:55:00,,0824.3,5.01,0.00,22.1,21.0,00.0,30.8,23.9,05.9,0000.0,0003.38,0011.36,0002.66
2022-12-19 16:56:00,,0824.4,4.98,0.00,22.1,21.0,00.0,30.8,23.9,06.0,0000.0,0003.35,0011.19,0002.63
2022-12-19 16:57:00,,0824.5,5.03,0.00,22.1,21.0,00.0,30.8,23.9,06.1,0000.0,0003.28,0010.57,0002.56
2022-12-19 16:58:00,,0824.4,4.95,0.00,22.1,21.0,00.0,30.8,23.9,06.0,0000.0,0003.20,0009.93,0002.46
2022-12-19 16:59:00,,0824.3,5.02,0.00,22.1,21.0,00.0,30.8,24.0,05.9,0000.0,0003.15,0009.95,0002.37
